CW4525 Weather Reports


Display with metric or nautical units.
time (UTC)temp
F
wind
direction
speed
MPH
gust
MPH
rain 1hr
in
rain 24hr
in
rain mn
in
humidity
%
barometer
mb
20260901054553 64 102 0.0 0.0 0.00 0.00 0.00 86 1013.8
20260901053117 64 102 1.0 4.0 0.00 0.00 0.00 85 1013.9
20260901051604 64 102 2.0 4.0 0.00 0.00 0.00 85 1014.1
20260901050053 65 102 0.0 4.0 0.00 0.00 0.00 84 1013.9
20260901044603 65 115 3.0 6.0 0.00 0.00 0.00 83 1013.7
20260901043045 65 113 1.0 3.0 0.00 0.00 0.00 82 1013.9
20260901041542 66 113 0.0 5.0 0.00 0.00 0.00 80 1013.7
20260901034550 67 251 0.0 4.0 0.00 0.00 0.00 79 1013.8
20260901033039 67 248 2.0 5.0 0.00 0.00 0.00 78 1013.8
20260901031539 67 264 1.0 5.0 0.00 0.00 0.00 78 1013.9
20260901030040 67 264 1.0 6.0 0.00 0.00 0.00 78 1014.0
20260901024541 67 219 3.0 7.0 0.00 0.00 0.00 77 1013.9
20260901023053 67 215 4.0 8.0 0.00 0.00 0.00 78 1013.9
20260901021537 67 286 2.0 5.0 0.00 0.00 0.00 77 1013.8
20260901020042 67 243 2.0 5.0 0.00 0.00 0.00 77 1013.9
20260901014544 67 240 0.0 3.0 0.00 0.00 0.00 77 1013.8
20260901013035 67 235 1.0 5.0 0.00 0.00 0.00 77 1013.9
20260901011536 68 234 3.0 7.0 0.00 0.00 0.00 76 1014.1
20260901010034 68 205 0.0 0.0 0.00 0.00 0.00 75 1014.2
20260901004535 68 205 0.0 4.0 0.00 0.00 0.00 75 1014.1
20260901003033 69 205 0.0 4.0 0.00 0.00 0.00 74 1014.1
20260901001532 69 206 1.0 6.0 0.00 0.00 0.00 73 1013.9
20260901000032 70 186 2.0 6.0 0.00 0.00 0.00 71 1013.9
20260831234532 70 197 2.0 6.0 0.00 0.00 0.00 70 1013.8
20260831233031 71 207 2.0 6.0 0.00 0.00 0.00 68 1013.8
20260831231530 72 188 2.0 7.0 0.00 0.00 0.00 66 1014.1
20260831230029 73 209 3.0 8.0 0.00 0.00 0.00 62 1014.2
20260831224528 74 219 3.0 7.0 0.00 0.00 0.00 60 1014.3
20260831223029 74 225 4.0 9.0 0.00 0.00 0.00 57 1014.3
20260831221527 75 182 5.0 11.0 0.00 0.00 0.00 55 1014.4
20260831220027 76 217 5.0 7.0 0.00 0.00 0.00 53 1014.2
20260831214526 77 227 4.0 8.0 0.00 0.00 0.00 51 1014.2
20260831213025 78 244 3.0 7.0 0.00 0.00 0.00 50 1014.1
20260831211529 78 229 4.0 8.0 0.00 0.00 0.00 44 1014.0
20260831210024 80 241 1.0 9.0 0.00 0.00 0.00 42 1014.4
20260831204523 81 5 1.0 7.0 0.00 0.00 0.00 39 1014.4
20260831203024 80 263 5.0 10.0 0.00 0.00 0.00 40 1014.4
20260831201519 79 216 3.0 9.0 0.00 0.00 0.00 40 1014.4
20260831200035 79 246 4.0 10.0 0.00 0.00 0.00 39 1014.4
20260831194516 79 236 6.0 11.0 0.00 0.00 0.00 43 1014.4
20260831193021 79 265 6.0 12.0 0.00 0.00 0.00 45 1014.5
20260831191512 78 210 8.0 11.0 0.00 0.00 0.00 46 1014.5
20260831190012 78 261 6.0 11.0 0.00 0.00 0.00 48 1014.8
20260831184511 78 267 4.0 12.0 0.00 0.00 0.00 46 1014.9
20260831183009 78 201 5.0 11.0 0.00 0.00 0.00 45 1015.0
20260831181508 78 322 4.0 8.0 0.00 0.00 0.00 46 1015.1
20260831180011 77 265 3.0 10.0 0.00 0.00 0.00 46 1015.3
20260831174518 77 254 4.0 8.0 0.00 0.00 0.00 46 1015.3
20260831173004 77 275 3.0 10.0 0.00 0.00 0.00 49 1015.4
20260831171504 77 269 4.0 8.0 0.00 0.00 0.00 49 1015.5
20260831170001 76 242 3.0 9.0 0.00 0.00 0.00 49 1015.8
20260831164620 76 194 4.0 8.0 0.00 0.00 0.00 52 1016.0
20260831163057 75 5 3.0 7.0 0.00 0.00 0.00 52 1016.1
20260831161556 75 224 2.0 6.0 0.00 0.00 0.00 48 1016.2
20260831160053 74 276 4.0 7.0 0.00 0.00 0.00 50 1016.3
20260831154552 74 263 2.0 6.0 0.00 0.00 0.00 52 1016.2
20260831153047 73 68 3.0 8.0 0.00 0.00 0.00 54 1016.4
20260831151550 71 317 1.0 6.0 0.00 0.00 0.00 62 1016.5
20260831150044 70 95 1.0 5.0 0.00 0.00 0.00 59 1016.6
20260831144536 68 338 3.0 8.0 0.00 0.00 0.00 62 1016.6
20260831143031 67 288 2.0 6.0 0.00 0.00 0.00 64 1016.8
20260831141528 66 269 2.0 6.0 0.00 0.00 0.00 67 1016.8
20260831140024 64 325 2.0 6.0 0.00 0.00 0.00 71 1016.7
20260831134521 63 196 3.0 6.0 0.00 0.00 0.00 74 1016.6
20260831133017 62 344 0.0 0.0 0.00 0.00 0.00 78 1016.5
20260831131518 60 344 0.0 0.0 0.00 0.00 0.00 80 1016.5
20260831130018 60 344 0.0 0.0 0.00 0.00 0.00 82 1016.5
20260831124512 59 5 0.0 0.0 0.00 0.00 0.00 83 1016.5
20260831123011 58 5 0.0 2.0 0.00 0.00 0.00 85 1016.4
20260831121510 58 5 0.0 0.0 0.00 0.00 0.00 87 1016.3
20260831120016 57 5 0.0 4.0 0.00 0.00 0.00 88 1016.1
20260831114523 57 5 0.0 4.0 0.00 0.00 0.00 89 1016.0
20260831113007 57 22 0.0 2.0 0.00 0.00 0.00 89 1016.0
20260831111506 57 21 0.0 2.0 0.00 0.00 0.00 89 1015.7
20260831110005 57 326 0.0 1.0 0.00 0.00 0.00 89 1015.6
20260831104504 57 326 0.0 5.0 0.00 0.00 0.00 89 1015.5
20260831103002 57 329 1.0 5.0 0.00 0.00 0.00 89 1015.4
20260831101553 57 333 2.0 6.0 0.00 0.00 0.00 89 1015.4
20260831100055 57 337 1.0 4.0 0.00 0.00 0.00 88 1015.4
20260831094550 57 348 0.0 1.0 0.00 0.00 0.00 88 1015.2
20260831093052 58 347 0.0 6.0 0.00 0.00 0.00 88 1014.9
20260831091548 58 338 0.0 7.0 0.00 0.00 0.00 88 1014.9
20260831090047 58 338 1.0 5.0 0.00 0.00 0.00 87 1014.8
20260831084544 58 324 0.0 0.0 0.00 0.00 0.00 87 1014.6
20260831083043 59 324 0.0 2.0 0.00 0.00 0.00 86 1014.5
20260831081541 59 323 0.0 4.0 0.00 0.00 0.00 85 1014.4
20260831080042 59 302 1.0 6.0 0.00 0.00 0.00 85 1014.4
20260831074538 60 317 1.0 4.0 0.00 0.00 0.00 85 1014.3
20260831073035 60 252 0.0 2.0 0.00 0.00 0.00 85 1014.3
20260831071534 61 252 0.0 2.0 0.00 0.00 0.00 86 1014.2
20260831070037 61 251 0.0 6.0 0.00 0.00 0.00 86 1014.3
20260831064530 61 300 0.0 5.0 0.00 0.00 0.00 86 1014.1
20260831063030 61 298 0.0 4.0 0.00 0.00 0.00 87 1014.0
20260831061527 62 301 0.0 2.0 0.00 0.00 0.00 86 1014.3
20260831060026 63 325 0.0 4.0 0.00 0.00 0.00 85 1014.0